Regional Weather Roundup
Issued by NWS Austin/San Antonio, TX

Home | Current Version | Previous Version | Text Only | Print | Product List | Glossary On
Versions: 1 2 3 4 5 6 7 8 9 10 11 12 13 14 15 16 17 18 19 20 21 22 23 24 25 26 27 28 29 30 31 32 33 34 35 36 37 38 39 40 41 42 43 44 45 46 47 48 49 50
000
ASUS44 KEWX 272210
RWREWX
SOUTH TEXAS REGIONAL WEATHER ROUNDUP
NATIONAL WEATHER SERVICE AUSTIN/SAN ANTONIO TX
500 PM CDT WED MAY 27 2020

NOTE: "FAIR" INDICATED FEW OR NO CLOUDS BELOW 12,000 FEET WITH NO
SIGNIFICANT WEATHER AND/OR OBSTRUCTIONS TO VISIBILITY.

* - THESE STATIONS ARE NOT NWS OR FAA STATIONS...AND ARE NOT SUBJECT
    TO NWS AND FAA QUALITY CONTROL.

TXZ171-172-183>190-272300-
TEXAS HILL COUNTRY AND EDWARDS PLATEAU

CITY           SKY/WX    TMP DP  RH WIND       PRES   REMARKS
JUNCTION       SUNNY     92  55  28 S13G25    29.79F HX  90
*LLANO         CLOUDY    86  66  51 SE3       29.82S
BURNET         CLOUDY    80  62  54 E14G24    29.83F
*HORSESHOE BAY CLOUDY    90  59  35 S10G16    29.79F
*LAGO VISTA    CLOUDY    69  64  83 NE13G21   29.84R
*KERRVILLE     SUNNY     89  58  35 SW14      29.83S
*FREDERICKSBRG CLOUDY    87  56  34 S12       29.82F
*ROCKSPRINGS   SUNNY     90  52  27 SW13G23   29.88F
*BOERNE        MOSUNNY   86  61  42 SW9G18    29.83F
HONDO          SUNNY     90  63  40 S13G23    29.79F HX  91
*UVALDE          N/A     92  64  38 S12       29.79F HX  93
DEL RIO        SUNNY    101  60  25 S15G22    29.72F HX 101
*LAUGHLIN AFB  SUNNY     96  60  29 SE17G25   29.73F HX  96
*SPOFFORD      NOT AVBL
*EAGLE PASS    SUNNY     99  57  25 S14G23    29.75F HX  97
CARRIZO SPRGS  SUNNY     91  64  40 S14G21    29.76F HX  93
$$

TXZ173-191>194-202-209-217>225-228-272300-
CENTRAL AND SOUTH CENTRAL TEXAS

CITY           SKY/WX    TMP DP  RH WIND       PRES   REMARKS
GEORGETOWN     MOSUNNY   81  61  50 E13G20    29.85F
*TAYLOR        PTSUNNY   80  64  59 E12       29.83F
AUSTIN/BERGSTM PTSUNNY   91  65  41 MISG      29.80F HX  93
AUSTIN/MABRY   PTSUNNY   78  61  55 NE9       29.83R
*PFLUGERVILLE  MOSUNNY   73  66  78 E12G18    29.83S
SAN MARCOS     SUNNY     92  64  39 S13G20    29.80F HX  93
NEW BRAUNFELS  MOSUNNY   93  63  36 SW15      29.79F HX  94
*RANDOLPH AFB  MOSUNNY   91  64  41 SW13      29.79F HX  92
*SEGUIN        SUNNY     89  64  43 S18       29.83F HX  90
SAN ANTONIO    MOSUNNY   91  64  40 S14G23    29.80F HX  92
STINSON FIELD  MOSUNNY   89  66  46 S12G21    29.76F HX  91
*KELLY FIELD   SUNNY     91  66  43 S14G21    29.77F HX  94
*PLEASANTON    MOSUNNY   93  67  42 S15       29.78F HX  97
*KENEDY        MOSUNNY   90  68  49 S16       29.80F HX  93
*LA GRANGE     PTSUNNY   76  66  71 NE8       29.83R
*GIDDINGS      LGT RAIN  71  63  75 E12       29.86S
*GONZALES      PTSUNNY   90  65  44 S9        29.79F HX  91
$$

TXZ163>164-176>182-195>201-210>213-226-227-235-272300-
SOUTHEAST TEXAS

CITY           SKY/WX    TMP DP  RH WIND       PRES   REMARKS
COLLEGE STN    PTSUNNY   70  65  84 SE9       29.85F
*BRYAN         PTSUNNY   69  67  94 S6        29.86F
*CALDWELL      NOT AVBL
*CROCKETT      NOT AVBL
*BRENHAM       LGT RAIN  66  66  99 E10G17    29.88F
HUNTSVILLE     CLOUDY    70  61  73 S7        29.84F
CONROE         LGT RAIN  65  63  93 SE12      29.92R
HOUSTON BUSH   TSTM      65  62  90 N20G36    29.93S FOG
HOUSTON HOBBY  TSTM      68  65  90 N18G46    29.94R VSB 1/2
*HOUSTON SW AP TSTM      80  70  70 N25G33    29.92R
PEARLAND       TSTM      67  63  87 N22G47    29.98R VSB 3/4
HOUSTON HOOKS  TSTM      65  61  87 NE12      29.90S
ELLINGTON FLD  TSTM      66  64  94 SE21G28   29.81R
SUGAR LAND     TSTM      66  64  93 NW20G46   29.90R FOG
*HOUSTON EXEC  DRIZZLE   68  66  94 NE9G20    29.88R
*CLEVELAND MUN TSTM      66  64  91 SW6       29.96R
*WHARTON       SUNNY     85  66  52 S14G20    29.86R
*COLUMBUS      CLOUDY    71  63  75 E16       29.89R
*EAGLE LAKE    TSTM      68  66  92 NE25G32   29.86
$$

TXZ214>216-236>238-272300-
THE UPPER TEXAS COAST

CITY           SKY/WX    TMP DP  RH WIND       PRES   REMARKS
*ORANGE        CLOUDY    81  65  56 SW13G18   29.87R
PORT ARTHUR    TSTM      73  66  78 S9        29.85R
GALVESTON      MOSUNNY   84  72  67 S21       29.82F
ANGLETON       MOSUNNY   86  70  58 S20G28    29.83S HX  90
*BAY CITY      MOSUNNY   87  72  62 S14G21    29.85R HX  93
PALACIOS       SUNNY     85  69  58 S14       29.84S
$$

TXZ229>234-239>247-272300-
TEXAS COASTAL BEND AND RIO GRANDE PLAINS

CITY           SKY/WX    TMP DP  RH WIND       PRES   REMARKS
VICTORIA       MOSUNNY   90  70  51 S16G24    29.82F HX  95
*BEEVILLE      MOSUNNY   91  75  60 S12       29.80F HX 101
ROCKPORT       SUNNY     85  71  63 S14G21    29.83F HX  90
*PORT ARANSAS  SUNNY     85  73  67 S15       29.84F HX  91
*PORT LAVACA   SUNNY     86  73  63 S16G23    29.84S HX  93
*INGLESIDE     SUNNY     87  73  62 S17G23    29.82F HX  93
CORPUS CHRISTI MOSUNNY   86  76  71 S14       29.81F HX  96
CORPUS NAS     MOSUNNY   87  74  64 S17       29.82F HX  95
*ROBSTOWN      SUNNY     90  73  56 S13G20    29.81F HX  97
ALICE          MOSUNNY   93  67  42 S17       29.79F HX  96
KINGSVILLE NAS MOSUNNY   93  67  42 S16       29.80F HX  96
COTULLA        SUNNY     93  69  45 S9        29.77F HX  98
LAREDO         SUNNY     92  70  48 SE14G22   29.78F HX  97
$$

TXZ248>255-272300-
DEEP SOUTH TEXAS

CITY           SKY/WX    TMP DP  RH WIND       PRES   REMARKS
BROWNSVILLE    SUNNY     93  68  43 SE17      29.82F HX  97
PORT ISABEL    SUNNY     90  66  45 SE21      29.81F HX  92
HARLINGEN      SUNNY     94  68  42 S12       29.80F HX  98
*HEBBRONVILLE  MOSUNNY   88  66  47 S13G18    29.83F HX  91
MCALLEN        SUNNY     92  69  47 S12G24    29.81F HX  97
*WESLACO       SUNNY     92  67  43 S12G21    29.80  HX  96
FALFURRIAS     NOT AVBL
EDINBURG       SUNNY     91  65  41 SE12      29.81F HX  93
*ZAPATA        NOT AVBL
$$

TXZ213>215-236>238-242>244-246-247-251-254-255-272300-
CMAN STATIONS

STATION/POSITION TIME  TEMP    WIND        PRES    WAVE
                       AIR SEA DIR/SP/G            HT/PER
                 (UTC) (F)     (DEG/KT/KT) (MB)    (FT/S)
SABINE PASS      2130          220/  6/ 11 1012.5
NORTH JETTY/GLS  2130          200/ 19/ 23 1008.7
EAGLE POINT      2124   81 82  200/ 22/ 25 1009.3
MORGANS POINT    2124   82 83  180/ 10/ 16 1009.6
PORT O`CONNOR    2130   81 85  200/ 16/ 19 1009.9
PORT ARANSAS     2200   80 84  170/ 16/ 17 1010.0
MALAQUITE BEACH  2130   81 91  140/ 15/ 18 1010.1
BAFFIN BAY       2130   83 89  120/ 14/ 17 1010.3
PORT ISABEL      2130   85 82  150/ 13/ 18 1012.4
$$




USA.gov is the U.S. government's official web portal to all federal, state and local government web resources and services.